Flag for Hungary Weather past 2 weeks in Debrecen, Hungary

Now
70 °F

Sunny.


Feels Like: 70 °F
Forecast: 67 / 83 °F
Wind: 16 mph from Northeast

Location: Debrecen Airport

Current Time: Sep 3, 2014 at 9:52:16 AM

Latest Report: Sep 3, 2014 at 9:15 AM


Visibility: 10 mi

Pressure: 29.92 "Hg

Humidity: 64%

Dew point: 57 °F

Location of DebrecenLocation

Historic Weather in Debrecen — Graph

°F

Debrecen temperature yesterday

Maximum temperature yesterday: 84 °F (at 2:15 PM)
Minimum temperature yesterday: 59 °F (at 5:45 AM)
Average temperature yesterday: 75 °F

Past Weeks' High & Low Weather Summary

 TemperatureHumidityPressure
High84 °F (Sep 1, 2:15 PM)100% (Aug 21, 5:15 AM)30.15 "Hg (Aug 21, 5:15 AM)
Low48 °F (Aug 25, 5:15 AM)29% (Sep 2, 2:15 PM)29.74 "Hg (Aug 27, 3:15 PM)
Average68 °F62%29.96 "Hg
* Reported Aug 19 8:15 AM — Sep 3 8:15 AM, Debrecen, Weather by CustomWeather, © 2014

Note: Actual official high and low records may vary slightly from our data, if they occured in-between our weather recording intervals... More about our weather records

Advertising

Debrecen weather history for previous 24 hours

 ConditionsComfort  
Time TempWeatherWind HumidityBarometerVisibility
8:15 AM
Sep 3
68 °FMore clouds than sun.17 mph69%29.92 "HgN/A
7:45 AM68 °FMore clouds than sun.16 mph64%29.89 "HgN/A
7:15 AM66 °FOvercast.17 mph68%29.89 "HgN/A
6:15 AM66 °FMostly cloudy.17 mph73%29.89 "HgN/A
5:50 AM66 °FMild.16 mph68%29.89 "HgN/A
4:45 AM66 °FClear.15 mph68%29.89 "Hg10 mi
8:45 PM
Sep 2
72 °FClear.14 mph69%29.86 "Hg10 mi
8:15 PM73 °FClear.15 mph65%29.86 "Hg10 mi
7:45 PM73 °FSunny.14 mph69%29.86 "Hg10 mi
7:15 PM75 °FSunny.16 mph61%29.86 "Hg10 mi
6:45 PM77 °FSunny.15 mph57%29.83 "Hg10 mi
6:15 PM79 °FSunny.15 mph51%29.83 "Hg10 mi
5:45 PM81 °FSunny.10 mph34%29.83 "Hg10 mi
5:15 PM82 °FSunny.15 mph30%29.83 "Hg10 mi
4:45 PM82 °FSunny.15 mph30%29.83 "Hg10 mi
4:15 PM82 °FSunny.16 mph30%29.83 "Hg10 mi
3:45 PM84 °FSunny.17 mph29%29.83 "Hg10 mi
3:15 PM84 °FSunny.18 mph31%29.83 "Hg10 mi
2:45 PM84 °FSunny.18 mph29%29.83 "Hg10 mi
2:15 PM84 °FSunny.21 mph29%29.83 "Hg10 mi
1:45 PM82 °FSunny.16 mph35%29.83 "Hg10 mi
1:15 PM82 °FSunny.16 mph32%29.83 "Hg10 mi
12:45 PM82 °FSunny.16 mph32%29.83 "Hg10 mi
12:15 PM81 °FSunny.15 mph34%29.83 "Hg10 mi
11:45 AM81 °FSunny.14 mph34%29.83 "Hg10 mi
11:15 AM79 °FSunny.13 mph39%29.86 "Hg10 mi
10:45 AM77 °FSunny.13 mph44%29.86 "Hg10 mi
10:15 AM75 °FSunny.12 mph50%29.83 "Hg10 mi
9:45 AM73 °FSunny.9 mph53%29.83 "Hg10 mi
9:15 AM70 °FSunny.7 mph60%29.83 "Hg10 mi
Weather by CustomWeather, © 2014

See weather overviewHow to use our weather pages